Weather WX

World > North America > United States > Missouri

Bois D Arc, Missouri Regional Weather

Lat: 37.26N, Lon: 93.35W
Wx Zone: MOZ090
Feedback

Bois D Arc, MO Regional Weather

Expires:201906250200;;028547
ASUS43 KEAX 250110
RWREAX

WEATHER ROUNDUP FOR EASTERN KANSAS AND NORTHWEST MISSOURI
NATIONAL WEATHER SERVICE KANSAS CITY/PLEASANT HILL MO
800 PM CDT MON JUN 24 2019


MOZ041-047>049-056>058-063>065-088>090-097-250200-
...EASTERN AND SOUTHERN MISSOURI...
  
CITY           SKY/WX    TMP DP  RH WIND       PRES   REMARKS
ST. LOUIS INTL PTCLDY    77  56  48 W15       29.83R                  
SPIRIT OF STL  PTCLDY    76  61  59 W9        29.83R                  
COLUMBIA       CLEAR     74  59  59 W8        29.86R                  
ROLLA          PTCLDY    72  58  61 W7        29.89R                  
OSAGE BEACH    CLEAR     72  61  68 W3        29.89R                  
SPRINGFIELD    CLEAR     76  59  55 W6        29.91R                  
BRANSON        PTCLDY    75  57  53 CALM      29.94R                  
JOPLIN         CLEAR     76  60  57 VRB3      29.91R                  
WEST PLAINS    CLEAR     75  58  55 W5        29.92R                  

$$


SKY/WX - Weather  TMP - Temperature  DP - Dew Point  RH - Relative Humidity
WIND - Wind Direction/Speed PRES - Barometric Pressure VSB - Visibility
WCI - Wind Chill Index E13G22 Wind - East Wind 13 mph/Gusts of 22 mph